Content
SEND FEEDBACK

Daily
Averages
Monthly
Summary
Mexico

PUERTO MORELOS, QUINTANA ROO


Home > North America > Mexico > Quintana Roo
Elevation: 20 feet     Latitude: 20 51N     Longitude: 086 52W

WEATHER
 
SELECT A DAY
Number of Records: 163,905;   Date Range: 1/1/95 - 8/10/14
 
SHARE

PRINT THIS DATA

[ ← Previous Day ]
WEATHER ALMANAC - APRIL 24, 2013
[ Next Day → ]
[ °C ]   °F
Weather ElementAverageHighLow
Temperature81.4 °F86 °F (11:49 am)75.2 °F (4:45 am)
Dewpoint72.1 °F73.4 °F (7:47 am)69.8 °F (12:45 pm)
Humidity73.9 %89 % (4:45 am)58 % (12:45 pm)
Barometer29.99 in30.05 in (10:52 pm)29.93 in (3:46 am)
Wind Speed8.5 mph15 mph (10:48 am)
Weather ElementAverage
Visibility6.7 mi
Wind DirectionESE (101.7 °)

Weather ElementTotal
Precipitation---
Cooling Degree Days15.6 (Base 65)
Growing Degree Days30.6 (Base 50)
Averaged from 23 records on April 24, 2013
WEATHER CONDITIONS BREAKOUT
WIND DIRECTION BREAKOUT
WEATHER BY HOUR - APRIL 24, 2013
[ °C ]   °F
Local TimeTemperatureDewpointHumidityBarometerVisibilityWind DirectionWind SpeedGust SpeedPrecipitationEventsConditions
1:45 AM78.8 °F71.6 °F78 %29.96 in7.0 miEast (90°)8.1 mphClear
2:43 AM78.8 °F71.6 °F78 %29.95 in7.0 miEast (100°)5.8 mphClear
3:46 AM77.0 °F71.6 °F83 %29.93 in7.0 miEast (80°)5.8 mphClear
4:45 AM75.2 °F71.6 °F89 %29.96 in7.0 miEast (90°)5.8 mphPartly Cloudy
5:44 AM75.2 °F71.6 °F89 %29.97 in7.0 miENE (60°)5.8 mphScattered Clouds
6:43 AM77.0 °F71.6 °F83 %29.95 in7.0 miENE (60°)5.8 mphScattered Clouds
7:47 AM80.6 °F73.4 °F79 %30.01 in7.0 miESE (110°)6.9 mphScattered Clouds
8:47 AM82.4 °F71.6 °F70 %30.03 in7.0 miNE (50°)5.8 mphScattered Clouds
9:46 AM82.4 °F71.6 °F70 %30.04 in7.0 miENE (70°)10.4 mphScattered Clouds
10:48 AM84.2 °F71.6 °F66 %30.04 in6.0 miESE (120°)15.0 mphScattered Clouds
11:49 AM86.0 °F71.6 °F62 %30.03 in6.0 miEast (100°)6.9 mphScattered Clouds
12:45 PM86.0 °F69.8 °F58 %30.01 in6.0 miESE (110°)13.8 mphScattered Clouds
1:44 PM86.0 °F71.6 °F62 %30.00 in6.0 miESE (120°)8.1 mphScattered Clouds
2:45 PM84.2 °F71.6 °F66 %29.97 in6.0 miSE (130°)12.7 mphMostly Cloudy
3:47 PM84.2 °F71.6 °F66 %29.95 in6.0 miSE (130°)12.7 mphScattered Clouds
4:41 PM84.2 °F71.6 °F66 %29.96 in6.0 miSE (130°)10.4 mphMostly Cloudy
5:45 PM84.2 °F73.4 °F70 %29.97 in6.0 miESE (120°)12.7 mphMostly Cloudy
6:43 PM82.4 °F71.6 °F70 %29.98 in7.0 miESE (110°)10.4 mphMostly Cloudy
7:40 PM80.6 °F73.4 °F79 %29.99 in7.0 miESE (110°)6.9 mphScattered Clouds
8:42 PM80.6 °F73.4 °F79 %30.01 in7.0 miESE (120°)5.8 mphScattered Clouds
9:45 PM80.6 °F73.4 °F79 %30.02 in7.0 miESE (120°)6.9 mphScattered Clouds
10:52 PM80.6 °F73.4 °F79 %30.05 in7.0 miESE (110°)6.9 mphScattered Clouds
11:44 PM80.6 °F73.4 °F79 %30.05 in7.0 miEast (100°)6.9 mphScattered Clouds
Hourly data recorded from MMUN, located miles away from Puerto Morelos, Quintana Roo







STORIES FROM OUR PARTNERS